FW8149 Weather Reports


time (UTC)temp
C
wind
direction
speed
KPH
gust
KPH
rain 1hr
cm
rain 24hr
cm
rain mn
cm
humidity
%
barometer
mb
20260508033546 6 71 0.0 1.6 0.00 0.00 0.00 89 1016.5
20260508033046 6 71 0.0 1.6 0.00 0.00 0.00 89 1016.5
20260508032546 6 71 0.0 1.6 0.00 0.00 0.00 89 1016.4
20260508032047 6 71 0.0 1.6 0.00 0.00 0.00 89 1016.5
20260508031545 6 71 0.0 1.6 0.00 0.00 0.00 89 1016.5
20260508031045 6 71 0.0 1.6 0.00 0.00 0.00 89 1016.5
20260508030545 6 71 0.0 1.6 0.00 0.00 0.00 89 1016.5
20260508030056 6 71 0.0 1.6 0.00 0.00 0.00 89 1016.6
20260508025545 6 71 0.0 1.6 0.00 0.00 0.00 89 1016.5
20260508025043 6 71 0.0 0.0 0.00 0.00 0.00 88 1016.4
20260508024554 6 71 0.0 0.0 0.00 0.00 0.00 88 1016.5
20260508024044 6 71 0.0 0.0 0.00 0.00 0.00 88 1016.5
20260508023543 6 71 0.0 0.0 0.00 0.00 0.00 88 1016.5
20260508023042 6 71 0.0 0.0 0.00 0.00 0.00 88 1016.5
20260508022543 6 71 0.0 0.0 0.00 0.00 0.00 88 1016.5
20260508022043 6 71 0.0 0.0 0.00 0.00 0.00 88 1016.5
20260508021542 6 71 0.0 1.6 0.00 0.00 0.00 88 1016.5
20260508021041 6 71 0.0 1.6 0.00 0.00 0.00 88 1016.4
20260508020541 6 71 0.0 0.0 0.00 0.00 0.00 87 1016.5
20260508020047 6 71 0.0 1.6 0.00 0.00 0.00 87 1016.5
20260508015541 6 71 0.0 1.6 0.00 0.00 0.00 87 1016.5
20260508015041 6 71 0.0 0.0 0.00 0.00 0.00 87 1016.5
20260508014540 6 71 0.0 0.0 0.00 0.00 0.00 87 1016.5
20260508014039 6 71 0.0 1.6 0.00 0.00 0.00 86 1016.5
20260508013538 6 71 0.0 0.0 0.00 0.00 0.00 86 1016.5
20260508013038 7 71 0.0 0.0 0.00 0.00 0.00 86 1016.5
20260508012537 7 71 0.0 0.0 0.00 0.00 0.00 85 1016.6
20260508012037 7 71 0.0 0.0 0.00 0.00 0.00 85 1016.6
20260508011548 7 71 0.0 0.0 0.00 0.00 0.00 85 1016.7
20260508011035 7 71 0.0 0.0 0.00 0.00 0.00 85 1016.6
20260508010535 7 71 0.0 0.0 0.00 0.00 0.00 85 1016.7
20260508010035 7 71 0.0 1.6 0.00 0.00 0.00 85 1016.6
20260508005539 7 71 0.0 1.6 0.00 0.00 0.00 85 1016.7
20260508005033 7 71 0.0 1.6 0.00 0.00 0.00 84 1016.7
20260508004545 7 71 0.0 1.6 0.00 0.00 0.00 84 1016.7
20260508004032 7 71 0.0 0.0 0.00 0.00 0.00 84 1016.7
20260508003533 7 71 0.0 1.6 0.00 0.00 0.00 83 1016.6
20260508003037 7 71 0.0 1.6 0.00 0.00 0.00 83 1016.7
20260508002529 8 71 0.0 0.0 0.00 0.00 0.00 83 1016.7
20260508002029 8 71 0.0 0.0 0.00 0.00 0.00 82 1016.8
20260508001528 8 71 0.0 0.0 0.00 0.00 0.00 82 1016.7
20260508001027 8 71 0.0 0.0 0.00 0.00 0.00 82 1016.7
20260508000530 8 71 0.0 0.0 0.00 0.00 0.00 82 1016.7
20260508000026 8 71 0.0 0.0 0.00 0.00 0.00 82 1016.6
20260507235527 8 71 0.0 0.0 0.00 0.00 0.00 82 1016.6
20260507235027 8 71 0.0 0.0 0.00 0.00 0.00 82 1016.7
20260507234522 8 71 0.0 0.0 0.00 0.00 0.00 81 1016.6
20260507234022 9 71 0.0 1.6 0.00 0.00 0.00 80 1016.7
20260507233521 9 71 0.0 1.6 0.00 0.00 0.00 80 1016.8
20260507233020 9 70 0.0 0.0 0.00 0.00 0.00 79 1016.9
20260507232520 10 70 0.0 1.6 0.00 0.00 0.00 80 1016.9
20260507232018 10 70 0.0 1.6 0.00 0.00 0.00 79 1016.8
20260507231518 10 70 0.0 1.6 0.00 0.00 0.00 79 1016.7
20260507231017 10 70 0.0 3.2 0.00 0.00 0.00 79 1016.7
20260507230518 10 70 0.0 3.2 0.00 0.00 0.00 79 1016.7
20260507230016 10 134 0.0 0.0 0.00 0.00 0.00 79 1016.6
20260507225515 10 134 0.0 0.0 0.00 0.00 0.00 79 1016.7
20260507225017 10 134 0.0 0.0 0.00 0.00 0.00 78 1016.9
20260507224517 10 134 0.0 1.6 0.00 0.00 0.00 79 1017.0
20260507224015 11 134 0.0 1.6 0.00 0.00 0.00 79 1017.0
20260507223514 11 134 0.0 0.0 0.00 0.00 0.00 78 1017.1
20260507223014 11 134 0.0 3.2 0.00 0.00 0.00 78 1017.2
20260507222514 11 134 0.0 3.2 0.00 0.00 0.00 78 1017.0
20260507222013 11 170 0.0 3.2 0.00 0.00 0.00 78 1017.0
20260507221516 11 172 0.0 1.6 0.00 0.00 0.00 78 1017.0
20260507221012 11 172 0.0 1.6 0.00 0.00 0.00 78 1017.0
20260507220513 11 172 0.0 1.6 0.00 0.00 0.00 78 1017.0
20260507220013 11 173 0.0 1.6 0.00 0.00 0.00 78 1017.0
20260507215513 11 173 0.0 1.6 0.00 0.00 0.00 78 1017.1
20260507215012 11 173 0.0 1.6 0.00 0.00 0.00 78 1017.1
20260507214512 11 173 0.0 0.0 0.00 0.00 0.00 77 1017.2
20260507214111 11 173 0.0 3.2 0.00 0.00 0.00 77 1017.2
20260507213513 11 173 0.0 3.2 0.00 0.00 0.00 77 1017.3
20260507213011 11 178 0.0 1.6 0.00 0.00 0.00 77 1017.2
20260507212510 11 178 0.0 4.8 0.00 0.00 0.00 77 1017.2
20260507212012 11 178 0.0 4.8 0.00 0.00 0.00 77 1017.2
20260507211510 11 133 0.0 4.8 0.00 0.00 0.00 77 1017.2
20260507211013 11 134 0.0 4.8 0.00 0.00 0.00 77 1017.2
20260507210509 11 163 0.0 4.8 0.00 0.00 0.00 77 1017.1
20260507210009 11 257 0.0 3.2 0.00 0.00 0.00 77 1017.0
20260507205509 11 153 0.0 3.2 0.00 0.00 0.00 76 1017.1
20260507205008 11 160 0.0 8.0 0.00 0.00 0.00 76 1016.9
20260507204508 11 161 0.0 8.0 0.00 0.00 0.00 76 1017.0
20260507204007 11 145 0.0 1.6 0.00 0.00 0.00 76 1017.0
20260507203510 11 143 0.0 3.2 0.00 0.00 0.00 76 1016.8
20260507203007 11 164 0.0 3.2 0.00 0.00 0.00 75 1016.8
20260507202507 11 130 0.0 6.4 0.00 0.00 0.00 75 1016.8
20260507202006 11 69 0.0 6.4 0.00 0.00 0.00 75 1016.8
20260507201507 11 189 0.0 4.8 0.00 0.00 0.00 75 1016.7
20260507201009 11 169 0.0 4.8 0.00 0.00 0.00 75 1016.7
20260507200507 12 155 0.0 4.8 0.00 0.00 0.00 75 1016.6
20260507200017 12 61 0.0 6.4 0.00 0.00 0.00 75 1016.5
20260507195506 12 195 0.0 6.4 0.00 0.00 0.00 74 1016.4
20260507195006 12 186 0.0 8.0 0.00 0.00 0.00 74 1016.4
20260507194506 12 153 0.0 6.4 0.00 0.00 0.00 74 1016.3
20260507194005 12 197 0.0 4.8 0.00 0.00 0.00 73 1016.1
20260507193505 12 174 0.0 8.0 0.00 0.00 0.00 73 1016.0
20260507193007 12 159 0.0 4.8 0.00 0.00 0.00 73 1016.0
20260507192508 12 159 0.0 8.0 0.00 0.00 0.00 73 1016.1
20260507192005 12 143 0.0 4.8 0.00 0.00 0.00 73 1016.1
20260507191504 12 175 0.0 4.8 0.00 0.00 0.00 72 1016.2
20260507191003 12 98 0.0 4.8 0.00 0.00 0.00 72 1016.3
20260507190503 12 159 0.0 6.4 0.00 0.00 0.00 72 1016.1
20260507190006 13 157 0.0 8.0 0.00 0.00 0.00 72 1016.1
20260507185501 13 155 1.6 8.0 0.00 0.00 0.00 72 1016.0
20260507185000 13 205 0.0 6.4 0.00 0.00 0.00 72 1015.9
20260507184600 13 159 0.0 6.4 0.00 0.00 0.00 71 1015.9
20260507184100 13 181 1.6 6.4 0.00 0.00 0.00 71 1016.0
20260507183559 13 163 1.6 8.0 0.00 0.00 0.00 71 1016.0
20260507183100 13 154 1.6 4.8 0.00 0.00 0.00 70 1015.9
20260507182557 13 162 0.0 6.4 0.00 0.00 0.00 71 1016.0
20260507182055 13 148 1.6 6.4 0.00 0.00 0.00 70 1016.0
20260507181555 13 214 0.0 6.4 0.00 0.00 0.00 70 1016.0
20260507181055 13 183 0.0 9.7 0.00 0.00 0.00 69 1015.9
20260507180555 13 232 1.6 9.7 0.00 0.00 0.00 69 1016.0
20260507175554 13 165 0.0 9.7 0.00 0.00 0.00 67 1016.0
20260507175054 13 82 3.2 11.3 0.00 0.00 0.00 67 1016.1
20260507174554 14 174 4.8 11.3 0.00 0.00 0.00 66 1016.0
20260507174054 14 182 1.6 9.7 0.00 0.00 0.00 66 1015.9
20260507173553 14 161 3.2 9.7 0.00 0.00 0.00 66 1015.9
20260507173056 14 100 3.2 12.9 0.00 0.00 0.00 66 1015.9
20260507172554 14 139 3.2 11.3 0.00 0.00 0.00 65 1015.8
20260507172053 14 178 3.2 12.9 0.00 0.00 0.00 65 1015.9
20260507171557 15 214 0.0 16.1 0.00 0.00 0.00 64 1015.9
20260507171053 15 240 3.2 16.1 0.00 0.00 0.00 63 1015.9
20260507170555 15 170 0.0 12.9 0.00 0.00 0.00 63 1015.8
20260507170052 15 153 1.6 8.0 0.00 0.00 0.00 63 1015.9
20260507165552 15 78 0.0 9.7 0.00 0.00 0.00 63 1015.8
20260507165054 15 196 1.6 9.7 0.00 0.00 0.00 62 1015.8
20260507164554 15 202 1.6 11.3 0.00 0.00 0.00 61 1015.9
20260507164050 15 180 1.6 11.3 0.00 0.00 0.00 61 1015.8
20260507163554 15 196 3.2 11.3 0.00 0.00 0.00 60 1015.8
20260507163051 15 205 3.2 11.3 0.00 0.00 0.00 60 1015.8
20260507162551 15 204 1.6 12.9 0.00 0.00 0.00 60 1015.8
20260507162053 15 180 4.8 16.1 0.00 0.00 0.00 60 1015.9
20260507161550 15 196 6.4 16.1 0.00 0.00 0.00 59 1015.8
20260507161052 15 193 3.2 11.3 0.00 0.00 0.00 59 1015.9
20260507160552 16 202 1.6 11.3 0.00 0.00 0.00 58 1016.0
20260507160058 16 92 0.0 14.5 0.00 0.00 0.00 58 1015.9
20260507155549 16 210 4.8 14.5 0.00 0.00 0.00 59 1016.0
20260507155049 15 222 3.2 11.3 0.00 0.00 0.00 61 1016.1
20260507154549 15 209 0.0 12.9 0.00 0.00 0.00 64 1016.0
20260507154050 14 208 1.6 12.9 0.00 0.00 0.00 64 1016.0
20260507153551 14 211 1.6 11.3 0.00 0.00 0.00 63 1015.9
20260507153052 14 164 1.6 11.3 0.00 0.00 0.00 61 1015.9
20260507152550 14 203 1.6 11.3 0.00 0.00 0.00 60 1015.8
20260507152048 14 221 1.6 9.7 0.00 0.00 0.00 60 1015.9
20260507151548 14 226 1.6 6.4 0.00 0.00 0.00 59 1015.7
20260507151048 15 233 1.6 8.0 0.00 0.00 0.00 59 1015.8
20260507150549 15 224 3.2 9.7 0.00 0.00 0.00 58 1015.8
20260507150047 15 212 1.6 12.9 0.00 0.00 0.00 57 1015.8
20260507145547 15 193 1.6 11.3 0.00 0.00 0.00 57 1015.9
20260507145046 15 244 0.0 9.7 0.00 0.00 0.00 57 1015.8
20260507144550 16 291 0.0 4.8 0.00 0.00 0.00 56 1015.9
20260507144046 16 143 0.0 6.4 0.00 0.00 0.00 56 1015.8
20260507143545 16 194 0.0 8.0 0.00 0.00 0.00 55 1015.9
20260507143045 16 182 0.0 8.0 0.00 0.00 0.00 54 1015.9
20260507142545 16 192 0.0 8.0 0.00 0.00 0.00 56 1015.9
20260507142045 17 256 0.0 11.3 0.00 0.00 0.00 55 1015.8
20260507141552 17 224 3.2 11.3 0.00 0.00 0.00 55 1016.0
20260507141044 17 182 0.0 14.5 0.00 0.00 0.00 56 1016.0
20260507140543 17 74 1.6 11.3 0.00 0.00 0.00 57 1016.0
20260507135542 16 65 1.6 11.3 0.00 0.00 0.00 59 1016.1
20260507135041 16 293 1.6 8.0 0.00 0.00 0.00 58 1016.1
20260507134541 17 309 0.0 8.0 0.00 0.00 0.00 59 1016.1
20260507134041 17 92 1.6 14.5 0.00 0.00 0.00 59 1016.2
20260507133542 16 153 3.2 14.5 0.00 0.00 0.00 59 1016.2
20260507133039 16 38 1.6 6.4 0.00 0.00 0.00 58 1016.2
20260507132538 16 150 0.0 8.0 0.00 0.00 0.00 58 1016.2
20260507132040 16 78 0.0 8.0 0.00 0.00 0.00 58 1016.3
20260507131538 16 48 1.6 8.0 0.00 0.00 0.00 60 1016.2
20260507131040 16 225 1.6 8.0 0.00 0.00 0.00 61 1016.3
20260507130534 15 37 0.0 9.7 0.00 0.00 0.00 60 1016.2
20260507130038 15 42 1.6 9.7 0.00 0.00 0.00 62 1016.2
20260507125534 15 200 0.0 8.0 0.00 0.00 0.00 62 1016.4
20260507125030 15 171 0.0 9.7 0.00 0.00 0.00 63 1016.4
20260507124529 15 249 0.0 4.8 0.00 0.00 0.00 63 1016.5
20260507124028 15 87 0.0 6.4 0.00 0.00 0.00 63 1016.6
20260507123529 14 55 1.6 8.0 0.00 0.00 0.00 64 1016.5
20260507123032 14 80 0.0 8.0 0.00 0.00 0.00 63 1016.6
20260507122528 14 67 1.6 8.0 0.00 0.00 0.00 65 1016.6
20260507122024 13 70 1.6 8.0 0.00 0.00 0.00 65 1016.6
20260507121523 13 20 1.6 4.8 0.00 0.00 0.00 65 1016.6
20260507121022 13 43 0.0 6.4 0.00 0.00 0.00 66 1016.6
20260507120521 13 46 3.2 6.4 0.00 0.00 0.00 66 1016.6
20260507120020 13 38 1.6 4.8 0.00 0.00 0.00 65 1016.7
20260507115519 13 36 1.6 9.7 0.00 0.00 0.00 66 1016.6
20260507115017 13 46 3.2 9.7 0.00 0.00 0.00 66 1016.6
20260507114516 13 59 0.0 4.8 0.00 0.00 0.00 67 1016.6
20260507114016 12 48 0.0 4.8 0.00 0.00 0.00 66 1016.6
20260507113514 12 49 3.2 4.8 0.00 0.00 0.00 66 1016.5
20260507113023 12 53 0.0 4.8 0.00 0.00 0.00 66 1016.5
20260507112514 12 52 0.0 3.2 0.00 0.00 0.00 66 1016.5
20260507112015 12 51 0.0 0.0 0.00 0.00 0.00 67 1016.6
20260507111518 12 52 0.0 3.2 0.00 0.00 0.00 67 1016.7
20260507111012 12 52 0.0 3.2 0.00 0.00 0.00 66 1016.7
20260507110517 12 53 0.0 4.8 0.00 0.00 0.00 67 1016.7
20260507110016 12 53 1.6 4.8 0.00 0.00 0.00 66 1016.8
20260507105513 12 68 0.0 4.8 0.00 0.00 0.00 66 1016.8
20260507105011 12 69 1.6 4.8 0.00 0.00 0.00 67 1016.8
20260507104513 12 70 1.6 6.4 0.00 0.00 0.00 67 1016.8
20260507104015 12 82 1.6 6.4 0.00 0.00 0.00 67 1016.9
20260507103510 12 51 0.0 4.8 0.00 0.00 0.00 68 1016.9
20260507103013 12 52 1.6 6.4 0.00 0.00 0.00 68 1016.9
20260507102517 12 57 3.2 8.0 0.00 0.00 0.00 68 1016.8
20260507102010 12 64 4.8 8.0 0.00 0.00 0.00 68 1016.9
20260507101511 12 51 3.2 8.0 0.00 0.00 0.00 68 1016.9
20260507101011 12 79 1.6 6.4 0.00 0.00 0.00 69 1016.9
20260507100510 12 64 0.0 4.8 0.00 0.00 0.00 69 1016.9
20260507100016 12 63 1.6 4.8 0.00 0.00 0.00 69 1016.9
20260507095609 12 177 0.0 4.8 0.00 0.00 0.00 69 1016.8
20260507095008 12 67 0.0 4.8 0.00 0.00 0.00 69 1016.8
20260507094507 12 321 0.0 3.2 0.00 0.00 0.00 70 1016.8
20260507094007 12 251 0.0 3.2 0.00 0.00 0.00 70 1016.8
20260507093509 12 150 0.0 3.2 0.00 0.00 0.00 70 1016.8
20260507093008 12 86 0.0 6.4 0.00 0.00 0.00 70 1016.7
20260507092507 12 52 0.0 6.4 0.00 0.00 0.00 70 1016.8
20260507092006 12 71 0.0 6.4 0.00 0.00 0.00 70 1016.8
20260507091506 12 72 0.0 6.4 0.00 0.00 0.00 69 1016.7
20260507091008 12 218 0.0 6.4 0.00 0.00 0.00 69 1016.8
20260507090506 12 228 1.6 6.4 0.00 0.00 0.00 69 1016.8
20260507090006 12 54 0.0 3.2 0.00 0.00 0.00 69 1016.8
20260507085506 12 84 0.0 4.8 0.00 0.00 0.00 69 1016.8
20260507085007 12 40 0.0 4.8 0.00 0.00 0.00 70 1016.7
20260507084504 12 228 0.0 1.6 0.00 0.00 0.00 70 1016.7
20260507084103 12 228 0.0 4.8 0.00 0.00 0.00 70 1016.7
20260507083035 12 228 1.6 4.8 0.00 0.00 0.00 71 1016.7
20260507082516 12 206 1.6 6.4 0.00 0.00 0.00 72 1016.8
20260507082014 12 103 0.0 6.4 0.00 0.00 0.00 71 1016.8
20260507081515 12 241 0.0 4.8 0.00 0.00 0.00 72 1016.8
20260507081014 12 242 0.0 4.8 0.00 0.00 0.00 71 1016.7
20260507080515 12 243 0.0 4.8 0.00 0.00 0.00 71 1016.7
20260507080012 12 249 0.0 6.4 0.00 0.00 0.00 72 1016.7
20260507075512 12 248 0.0 6.4 0.00 0.00 0.00 72 1016.7
20260507075011 12 221 0.0 4.8 0.00 0.00 0.00 73 1016.7
20260507074523 12 46 0.0 8.0 0.00 0.00 0.00 73 1016.6
20260507074007 12 101 1.6 8.0 0.00 0.00 0.00 74 1016.6
20260507073507 12 163 0.0 6.4 0.00 0.00 0.00 75 1016.6
20260507073006 11 48 1.6 8.0 0.00 0.00 0.00 76 1016.6
20260507072505 11 163 0.0 8.0 0.00 0.00 0.00 78 1016.6
20260507072006 11 200 1.6 8.0 0.00 0.00 0.00 79 1016.6
20260507071501 11 86 0.0 6.4 0.00 0.00 0.00 79 1016.6
20260507071101 11 96 1.6 6.4 0.00 0.00 0.00 80 1016.6
20260507070559 10 198 0.0 4.8 0.00 0.00 0.00 81 1016.5
20260507070057 10 146 0.0 4.8 0.00 0.00 0.00 81 1016.6
20260507065558 10 88 0.0 4.8 0.00 0.00 0.00 82 1016.6
20260507065055 10 89 0.0 4.8 0.00 0.00 0.00 83 1016.6
20260507064558 10 26 0.0 8.0 0.00 0.00 0.00 83 1016.5
20260507064054 9 202 0.0 4.8 0.00 0.00 0.00 83 1016.6
20260507063554 9 196 0.0 3.2 0.00 0.00 0.00 84 1016.4
20260507063055 9 153 0.0 0.0 0.00 0.00 0.00 85 1016.4
20260507062551 8 72 0.0 0.0 0.00 0.00 0.00 85 1016.5
20260507062050 8 64 0.0 0.0 0.00 0.00 0.00 86 1016.4
20260507061549 8 184 0.0 0.0 0.00 0.00 0.00 87 1016.4
20260507061047 8 71 0.0 0.0 0.00 0.00 0.00 87 1016.3
20260507060546 7 244 0.0 0.0 0.00 0.00 0.00 86 1016.3
20260507060045 7 244 0.0 0.0 0.00 0.00 0.00 85 1016.2
20260507055545 7 244 0.0 0.0 0.00 0.00 0.00 85 1016.3
20260507055043 7 244 0.0 0.0 0.00 0.00 0.00 85 1016.3
20260507054550 7 244 0.0 0.0 0.00 0.00 0.00 85 1016.2
20260507054043 7 244 0.0 0.0 0.00 0.00 0.00 85 1016.2
20260507053542 7 244 0.0 0.0 0.00 0.00 0.00 85 1016.2
20260507053047 7 244 0.0 0.0 0.00 0.00 0.00 85 1016.1
20260507052543 7 244 0.0 0.0 0.00 0.00 0.00 85 1016.1
20260507052041 7 244 0.0 0.0 0.00 0.00 0.00 85 1016.2
20260507051541 7 244 0.0 1.6 0.00 0.00 0.00 85 1016.1
20260507051041 7 244 0.0 1.6 0.00 0.00 0.00 84 1016.2
20260507050538 7 244 0.0 3.2 0.00 0.00 0.00 84 1016.0
20260507050039 7 244 0.0 3.2 0.00 0.00 0.00 85 1016.1
20260507045537 8 244 1.6 4.8 0.00 0.00 0.00 84 1016.1
20260507045036 8 244 1.6 4.8 0.00 0.00 0.00 84 1016.0
20260507044536 8 244 1.6 6.4 0.00 0.00 0.00 84 1016.0
20260507044036 8 215 1.6 4.8 0.00 0.00 0.00 84 1016.0
20260507043533 8 76 0.0 0.0 0.00 0.00 0.00 84 1016.0
20260507043036 8 75 0.0 3.2 0.00 0.00 0.00 84 1016.0
20260507042532 8 75 0.0 3.2 0.00 0.00 0.00 84 1015.9
20260507042032 8 50 0.0 0.0 0.00 0.00 0.00 84 1015.9
20260507041532 8 50 0.0 0.0 0.00 0.00 0.00 84 1015.9
20260507041032 8 50 0.0 0.0 0.00 0.00 0.00 84 1015.9
20260507040532 8 50 0.0 1.6 0.00 0.00 0.00 85 1015.9
20260507040035 8 50 0.0 1.6 0.00 0.00 0.00 85 1015.8
20260507035533 8 50 0.0 3.2 0.00 0.00 0.00 85 1015.9
20260507035031 8 50 0.0 3.2 0.00 0.00 0.00 85 1015.8
20260507034530 8 50 0.0 3.2 0.00 0.00 0.00 85 1015.8
20260507034031 8 51 0.0 3.2 0.00 0.00 0.00 84 1015.8